Hourly Data Report for October 02, 2017

All times are specified in Local Standard Time (LST). Add 1 hour to adjust for Daylight Saving Time where and when it is observed.

HAMILTON A
ONTARIO

43°10'25.000" N
79°56'06.000" W
237.70 m
6153193
71263
YHM

Download Data

Hourly Data (October 2017)
Hourly Data Report for October 2, 2017
Temp Definition
°C
Dew Point Temp Definition
°C
Rel Hum Definition
%
Wind Dir Definition
10's deg

Wind Spd Definition
km/h
Visibility Definition
km
Stn Press Definition
kPa
Hmdx Definition


Wind Chill Definition


Weather Definition


TIME
00:00 Legend Double Dagger 7.7 5.5 86 9 5 24.1 99.82     LegendNANA
01:00 Legend Double Dagger 7.7 5.3 85 8 7 24.1 99.82     Mainly Clear
02:00 Legend Double Dagger 6.9 4.9 87 5 11 24.1 99.81     LegendNANA
03:00 Legend Double Dagger 7.6 4.2 79 6 10 24.1 99.81     LegendNANA
04:00 Legend Double Dagger 6.2 4.5 89 4 12 24.1 99.84     Mainly Clear
05:00 Legend Double Dagger 5.7 5.2 97 7 9 24.1 99.89     LegendNANA
06:00 Legend Double Dagger 6.1 5.9 99 3 12 12.9 99.94     LegendNANA
07:00 Legend Double Dagger 8.8 8.7 100 3 14 16.1 99.99     Mainly Clear
08:00 Legend Double Dagger 12.1 10.3 89 5 13 19.3 100.03     LegendNANA
09:00 Legend Double Dagger 14.9 9.2 68 7 17 24.1 100.06     LegendNANA
10:00 Legend Double Dagger 16.7 8.9 60 6 11 24.1 100.10     Mainly Clear
11:00 Legend Double Dagger 18.4 8.2 51 5 14 24.1 100.09     LegendNANA
12:00 Legend Double Dagger 19.2 7.7 47 6 14 24.1 100.05     LegendNANA
13:00 Legend Double Dagger 19.8 8.2 47 6 9 24.1 100.01     Mainly Clear
14:00 Legend Double Dagger 19.6 8.2 47 6 17 24.1 99.96     LegendNANA
15:00 Legend Double Dagger 18.8 9.0 53 5 21 24.1 99.97     LegendNANA
16:00 Legend Double Dagger 17.1 9.9 62 5 20 24.1 99.98     Mostly Cloudy
17:00 Legend Double Dagger 16.4 10.0 65 5 16 24.1 100.02     LegendNANA
18:00 Legend Double Dagger 14.0 11.3 84 6 16 24.1 100.03     LegendNANA
19:00 Legend Double Dagger 12.0 10.9 93 5 15 24.1 100.06     Mostly Cloudy
20:00 Legend Double Dagger 11.5 10.4 93 5 14 24.1 100.08     LegendNANA
21:00 Legend Double Dagger 11.6 10.5 93 5 13 24.1 100.09     LegendNANA
22:00 Legend Double Dagger 11.1 9.5 90 4 12 24.1 100.07     Mainly Clear
23:00 Legend Double Dagger 9.9 9.2 95 2 8 24.1 100.06     LegendNANA

Notes on Data Quality.

Legend

  • E = Estimated
  • M = Missing
  • NA = Not Available
  • ‡ = Partner data that is not subject to review by the National Climate Archives
Date modified: